FENGYUN 1C DEB, 31288

Orbit data source: Space-Track

FENGYUN 1C DEB, 31288 is space debris in SSO originally from a launch on Mon, 10 May 1999 UTC launched from the Taiyaun Space Center, China (TSC). Fengyun 1C debris stems from the Chinese weather satellite Fengyun-1C, which was intentionally destroyed by a Chinese anti-satellite missile in 2007. This event dramatically increased the amount of space debris, with thousands of trackable fragments posing hazards to satellites and human spaceflight. The Fengyun 1C debris cloud has become a focal point in discussions about space sustainability and the need for international regulations to prevent the creation of new debris.

Loading next visibility...
Identifier
31288, 1999-025BNW
Orbit
SSO
Country
Flag of CNCN / PRC
Related business
Manufacturer
Unknown
Mission
Spacecraft
Bus & Motor
Unknown
Mass
Unknown
Launch date (UTC)
1999-05-10 (27 years ago)
Launch vehicle
Unknown
Launch site
Taiyaun Space Center, China (TSC)
Object type
Payload
Rocket body
Debris
Shape & HBR
Unknown shape, 0.1 m
Radar Cross Section
Small (<0.1 m²)

Expand to show TLE details & history
Last TLE update: 23 hours ago

TLE from 23 hours ago
0 FENGYUN 1C DEB
1 31288U 99025BNW 25353.43423631  .00038671  00000-0  33844-2 0  9990
2 31288  98.7467 152.2600 0022905 277.3502 146.1105 14.96394109976573
Epoch: 2025-12-19T10:25Z
TLE epoch observation values (Epoch: 2025-12-19T10:25:18.017Z)
Latitude
62.39071°
Longitude
-109.35315°
Altitude
601.974 km
Speed
7.557 km/s
True Right ascension
09h 00m 59s
True Declination
62° 14' 46"
Sunlit
Object was in full shadow at epoch
Visualization orbit readout
Latitude
Unknown
Longitude
Unknown
Altitude
Unknown
Speed
Unknown
Apparent Right ascension
Unknown
Apparent Declination
Unknown
Sunlit
N/A
Visualization observer readout
Local Sidereal Time
08:37:47
Azimuth
Unknown
Elevation
Unknown
Doppler factor
Unknown
Orbital elements
Apogee altitude
591.034 km
Perigee altitude
559.182 km
Semi-major axis
6,953.245 km
Eccentricity
0.00229
Inclination
98.7467°
RAAN
152.26°
Arg. of periapsis
277.3502°
True anomaly
146.25651°
Mean anomaly
146.1105°
Eccentric anomaly
146.18354°
Mean motion
3.74336 °/min
Orbital period
96.17 mins
BSTAR
0.0033844
Loading maneuver chart data...
Computing Atmospheric mass density...

Documentation

Showing up to 5 results
|